Location: St. Louis
(38.6270°N, 90.1994°W)
Time: 22:24:12
(UTC-05:00)

RS-15 - Pass Details

Date: 02 February 2022
Orbit: 1881 x 2163 km, 64.8° (Epoch: 19 May)

Event Time Altitude Azimuth Distance (km) Brightness Sun altitude
Rises 18:53:26 0° 257° (WSW) 5,455 12.1 -17.7°
Reaches altitude 10° 18:57:26 10° 268° (W) 4,498 11.2 -18.5°
Maximum altitude 19:07:24 31° 327° (NNW) 3,232 9.4 -20.4°
Drops below altitude 10° 19:17:47 10° 26° (NNE) 4,669 9.7 -22.5°
Enters shadow 19:21:11 - 35° (NE) 5,464 10.0 -23.1°
